Location: Ariel
(45.9570°N, 122.5700°W)
Time: 13:04:45
(UTC-07:00)

Altair - Pass Details

Date: 24 July 2019
Orbit: 1501 x 1683 km, 47.2° (Epoch: 24 August)

Event Time Altitude Azimuth Distance (km) Brightness Sun altitude
Rises 12:04:15 0° 228° (SW) 4,662 10.1 59.9°
Reaches altitude 10° 12:07:21 10° 225° (SW) 3,667 9.7 60.2°
Maximum altitude 12:16:18 59° 148° (SSE) 1,695 12.0 61.0°
Drops below altitude 10° 12:25:14 10° 72° (ENE) 3,667 9.7 61.8°
Sets 12:28:19 0° 69° (ENE) 4,662 10.1 62.0°
